Greeley, CO

3:53 PM MDT on March 23, 2019 (GMT -0600)
Greeley-Weld County

Weather History for KGXY - March, 2019

Change the Weather History Date:

Saturday, March 23, 2019

  Actual Average Record
Temperature  
Mean Temperature 42 °F -  
Max Temperature 44 °F - 80 °F (2017)
Min Temperature 39 °F - 10 °F (2013)
Degree Days  
Heating Degree Days 24    
Month to date heating degree days  
Cooling Degree Days 0    
Month to date cooling degree days  
Moisture  
Dew Point 35 °F    
Average Humidity 75    
Maximum Humidity 89    
Minimum Humidity 58    
Precipitation  
Precipitation 0.15 in - 0.35 in (1974)
Snow  
Snow - - - ()
Snow Depth -    
Sea Level Pressure  
Sea Level Pressure 29.94 in    
Wind  
Wind Speed 16 mph ()    
Max Wind Speed 26 mph    
Max Gust Speed 36 mph    
Visibility 9.8 miles    
Events Rain    
T = Trace of Precipitation, MM = Missing Value Source: Averaged Metar Reports

Daily Weather History Graph

Daily Weather History Graph

Search for Another Location

Airport or City:

Astronomy

Mar. 23, 2019 Rise Set
Actual Time 6:57 AM MDT 7:13 PM MDT
Civil Twilight 6:30 AM MDT 7:40 PM MDT
Nautical Twilight 5:58 AM MDT 8:12 PM MDT
Astronomical Twilight 5:25 AM MDT 8:45 PM MDT
Moon 10:33 PM MDT 8:48 AM MDT
Length of Visible Light 13h 10m
Length of Day
12h 16m
Waning Gibbous, 90% of the Moon is Illuminated
Today
Waning Gibbous
Mar 27
Last Quarter
Apr 5
New
Apr 12
First Quarter
Apr 19
Full

Hourly Weather History & Observations

Time (MDT) Temp. Windchill Dew Point Humidity Pressure Visibility Wind Dir Wind Speed Gust Speed Precip Events Conditions
12:56 AM 39.9 °F 29.0 °F 35.1 °F 83% 29.93 in 10.0 mi North 26.5 mph 32.2 mph 0.00 in Rain Light Rain
1:09 AM 39.2 °F 29.8 °F 35.6 °F 87% 29.92 in 10.0 mi North 18.4 mph 29.9 mph 0.01 in Rain Light Rain
1:56 AM 41.0 °F 30.9 °F 34.0 °F 76% 29.91 in 9.0 mi NNW 24.2 mph 35.7 mph 0.03 in Rain Light Rain
2:56 AM 42.1 °F 34.2 °F 34.0 °F 73% 29.88 in 10.0 mi NW 16.1 mph 25.3 mph 0.01 in Rain Light Rain
3:36 AM 42.8 °F 35.4 °F 33.8 °F 70% 29.88 in 10.0 mi North 15.0 mph 21.9 mph 0.01 in Rain Light Rain
3:56 AM 42.1 °F 33.6 °F 33.1 °F 70% 29.86 in 10.0 mi North 18.4 mph - 0.01 in Rain Light Rain
4:56 AM 43.0 °F 34.8 °F 32.0 °F 65% 29.86 in 10.0 mi North 18.4 mph 31.1 mph 0.00 in   Partly Cloudy
5:56 AM 43.0 °F 35.1 °F 32.0 °F 65% 29.88 in 10.0 mi North 17.3 mph 23.0 mph N/A   Partly Cloudy
6:56 AM 44.1 °F 38.1 °F 30.0 °F 58% 29.92 in 10.0 mi NNW 11.5 mph 34.5 mph N/A   Clear
7:56 AM 42.1 °F 34.9 °F 32.0 °F 67% 29.97 in 10.0 mi NNW 13.8 mph - 0.00 in Rain Light Rain
8:38 AM 42.8 °F 37.5 °F 33.8 °F 70% 29.94 in 10.0 mi West 9.2 mph 18.4 mph 0.00 in Rain Light Rain
8:56 AM 42.1 °F 40.2 °F 33.1 °F 70% 29.98 in 10.0 mi NW 3.5 mph - 0.00 in Rain Light Rain
9:56 AM 43.0 °F 40.3 °F 36.0 °F 76% 29.97 in 10.0 mi ESE 4.6 mph - 0.00 in   Clear
10:56 AM 42.1 °F 32.8 °F 34.0 °F 73% 29.99 in 8.0 mi NNW 21.9 mph - 0.00 in Rain Light Rain
11:00 AM 42.8 °F 33.5 °F 33.8 °F 70% 29.95 in 8.0 mi NNW 23.0 mph 31.1 mph 0.00 in Rain Light Rain
11:56 AM 39.0 °F 31.0 °F 36.0 °F 89% 30.01 in 10.0 mi North 13.8 mph - 0.05 in Rain Rain
12:56 PM 39.9 °F 30.8 °F 36.0 °F 86% 30.00 in 10.0 mi North 18.4 mph 26.5 mph 0.03 in Rain Light Rain
1:56 PM 42.1 °F 34.2 °F 37.0 °F 82% 29.99 in 10.0 mi North 16.1 mph 24.2 mph 0.01 in Rain Light Rain
2:08 PM 42.8 °F 35.1 °F 37.4 °F 81% 29.95 in 10.0 mi North 16.1 mph 25.3 mph 0.01 in Rain Light Rain
2:48 PM 42.8 °F 34.8 °F 37.4 °F 81% 29.94 in 10.0 mi NNE 17.3 mph 20.7 mph 0.01 in Rain Light Rain
2:56 PM 42.1 °F 34.2 °F 37.9 °F 85% 29.98 in 10.0 mi NNE 16.1 mph 20.7 mph 0.01 in Rain Light Rain
3:26 PM 42.8 °F 34.5 °F 37.4 °F 81% 29.94 in 10.0 mi NNE 18.4 mph 25.3 mph 0.01 in Rain Light Rain